Zurück zum Katalog

COSMOS 1818 COOLANT

AktivLEO
NORAD 34175·DEBRIS·🇷🇺 Russia

Gestartet Feb 1, 1987 von Baikonur Cosmodrome

Loading…

Nächste Überflüge (nächste 24 Stunden)

TLE

VeraltetSource: Space-Track

Epoche: Sep 2, 2026, 20:41 UTC

1 34175U 87011F   26245.86223206  .00000592  00000-0  20835-3 0  9992
2 34175  65.0019 298.3397 0022530 279.4091  80.4452 14.42560046101027

Verfolge COSMOS 1818 COOLANT in Echtzeit mit AllMySat

Download on the App Store